Time,TemperatureF,DewpointF,PressureIn,WindDirection,WindDirectionDegrees,WindSpeedMPH,WindSpeedGustMPH,Humidity,HourlyPrecipIn,Conditions,Clouds,dailyrainin,SoftwareType,DateUTC
2013-02-20 00:06:00,12.4,11.0,29.98,NNW,347,14.0,-999.0,93,-99.99,,,0.00,weatherlink.com 1.10,2013-02-20 05:06:00,
2013-02-20 00:21:00,12.4,11.0,29.98,North,360,23.0,-999.0,92,-99.99,,,0.00,weatherlink.com 1.10,2013-02-20 05:21:00,
2013-02-20 00:36:00,12.3,11.0,29.99,North,355,16.0,-999.0,93,-99.99,,,0.00,weatherlink.com 1.10,2013-02-20 05:36:00,
2013-02-20 00:51:00,12.3,11.0,30.00,North,355,14.0,-999.0,93,-99.99,,,0.00,weatherlink.com 1.10,2013-02-20 05:51:00,
2013-02-20 01:06:00,12.2,11.0,30.00,NNW,333,24.0,-999.0,93,-99.99,,,0.00,weatherlink.com 1.10,2013-02-20 06:06:00,
2013-02-20 01:21:00,12.2,10.0,30.01,North,355,10.0,-999.0,92,-99.99,,,0.00,weatherlink.com 1.10,2013-02-20 06:21:00,
2013-02-20 01:36:00,12.2,11.0,30.02,NW,323,17.0,-999.0,93,-99.99,,,0.00,weatherlink.com 1.10,2013-02-20 06:36:00,
2013-02-20 01:52:00,12.1,10.0,30.03,NNW,334,16.0,-999.0,92,-99.99,,,0.00,weatherlink.com 1.10,2013-02-20 06:52:00,
2013-02-20 02:07:00,12.1,10.0,30.03,NNW,347,17.0,-999.0,92,-99.99,,,0.00,weatherlink.com 1.10,2013-02-20 07:07:00,
2013-02-20 02:22:00,11.8,10.0,30.04,NW,308,20.0,-999.0,92,-99.99,,,0.00,weatherlink.com 1.10,2013-02-20 07:22:00,
2013-02-20 02:37:00,11.8,10.0,30.04,North,10,19.0,-999.0,92,-99.99,,,0.00,weatherlink.com 1.10,2013-02-20 07:37:00,
2013-02-20 02:52:00,11.6,10.0,30.05,North,355,12.0,-999.0,92,-99.99,,,0.00,weatherlink.com 1.10,2013-02-20 07:52:00,
2013-02-20 03:07:00,11.6,10.0,30.06,North,355,14.0,-999.0,92,-99.99,,,0.00,weatherlink.com 1.10,2013-02-20 08:07:00,
2013-02-20 03:22:00,11.7,10.0,30.06,NNW,339,16.0,-999.0,92,-99.99,,,0.00,weatherlink.com 1.10,2013-02-20 08:22:00,
2013-02-20 03:37:00,11.8,10.0,30.07,North,351,12.0,-999.0,92,-99.99,,,0.00,weatherlink.com 1.10,2013-02-20 08:37:00,
2013-02-20 03:52:00,11.8,10.0,30.07,NNW,344,14.0,-999.0,92,-99.99,,,0.00,weatherlink.com 1.10,2013-02-20 08:52:00,
2013-02-20 04:07:00,12.1,11.0,30.08,North,351,16.0,-999.0,93,-99.99,,,0.00,weatherlink.com 1.10,2013-02-20 09:07:00,
2013-02-20 04:22:00,12.0,10.0,30.09,NNW,329,13.0,-999.0,92,-99.99,,,0.00,weatherlink.com 1.10,2013-02-20 09:22:00,
2013-02-20 04:38:00,12.0,10.0,30.10,NNW,344,12.0,-999.0,92,-99.99,,,0.00,weatherlink.com 1.10,2013-02-20 09:38:00,
2013-02-20 04:53:00,12.1,11.0,30.11,North,360,14.0,-999.0,93,-99.99,,,0.00,weatherlink.com 1.10,2013-02-20 09:53:00,
2013-02-20 05:08:00,12.2,11.0,30.11,NNW,331,10.0,-999.0,93,-99.99,,,0.00,weatherlink.com 1.10,2013-02-20 10:08:00,
2013-02-20 05:23:00,12.3,10.0,30.12,NNW,331,10.0,-999.0,92,-99.99,,,0.00,weatherlink.com 1.10,2013-02-20 10:23:00,
2013-02-20 05:38:00,12.4,11.0,30.13,North,355,14.0,-999.0,93,-99.99,,,0.00,weatherlink.com 1.10,2013-02-20 10:38:00,
2013-02-20 05:53:00,12.6,11.0,30.15,NNW,338,14.0,-999.0,93,-99.99,,,0.00,weatherlink.com 1.10,2013-02-20 10:53:00,
2013-02-20 06:08:00,12.4,11.0,30.15,NNW,346,10.0,-999.0,92,-99.99,,,0.00,weatherlink.com 1.10,2013-02-20 11:08:00,
2013-02-20 06:23:00,12.6,11.0,30.15,NNW,338,22.0,-999.0,93,-99.99,,,0.00,weatherlink.com 1.10,2013-02-20 11:23:00,
2013-02-20 06:38:00,12.7,11.0,30.17,NW,326,21.0,-999.0,93,-99.99,,,0.00,weatherlink.com 1.10,2013-02-20 11:38:00,
2013-02-20 06:53:00,12.8,11.0,30.17,NNW,338,11.0,-999.0,93,-99.99,,,0.00,weatherlink.com 1.10,2013-02-20 11:53:00,
2013-02-20 07:09:00,12.7,11.0,30.18,NNW,329,13.0,-999.0,93,-99.99,,,0.00,weatherlink.com 1.10,2013-02-20 12:09:00,
2013-02-20 07:24:00,12.8,11.0,30.19,North,350,16.0,-999.0,93,-99.99,,,0.00,weatherlink.com 1.10,2013-02-20 12:24:00,
2013-02-20 07:39:00,13.0,11.0,30.20,NNE,15,14.0,-999.0,93,-99.99,,,0.00,weatherlink.com 1.10,2013-02-20 12:39:00,
2013-02-20 07:54:00,13.0,11.0,30.20,North,355,18.0,-999.0,93,-99.99,,,0.00,weatherlink.com 1.10,2013-02-20 12:54:00,
2013-02-20 08:09:00,13.0,11.0,30.21,NNW,330,10.0,-999.0,93,-99.99,,,0.00,weatherlink.com 1.10,2013-02-20 13:09:00,
2013-02-20 08:24:00,13.4,12.0,30.22,North,355,19.0,-999.0,93,-99.99,,,0.00,weatherlink.com 1.10,2013-02-20 13:24:00,
2013-02-20 08:39:00,13.5,12.0,30.22,NNW,340,17.0,-999.0,93,-99.99,,,0.00,weatherlink.com 1.10,2013-02-20 13:39:00,
2013-02-20 08:54:00,13.6,12.0,30.23,NW,320,13.0,-999.0,93,-99.99,,,0.00,weatherlink.com 1.10,2013-02-20 13:54:00,
2013-02-20 09:09:00,13.8,12.0,30.22,NNW,340,15.0,-999.0,93,-99.99,,,0.00,weatherlink.com 1.10,2013-02-20 14:09:00,
2013-02-20 09:24:00,13.9,12.0,30.23,NW,317,15.0,-999.0,93,-99.99,,,0.00,weatherlink.com 1.10,2013-02-20 14:24:00,
2013-02-20 09:39:00,14.0,12.0,30.23,NW,323,18.0,-999.0,93,-99.99,,,0.00,weatherlink.com 1.10,2013-02-20 14:39:00,
2013-02-20 09:55:00,14.1,13.0,30.24,NNW,338,18.0,-999.0,93,-99.99,,,0.00,weatherlink.com 1.10,2013-02-20 14:55:00,
2013-02-20 10:10:00,14.1,13.0,30.24,NW,324,17.0,-999.0,93,-99.99,,,0.00,weatherlink.com 1.10,2013-02-20 15:10:00,
2013-02-20 10:25:00,14.1,13.0,30.25,NNW,336,15.0,-999.0,93,-99.99,,,0.00,weatherlink.com 1.10,2013-02-20 15:25:00,
2013-02-20 10:40:00,14.1,13.0,30.25,NNW,345,11.0,-999.0,93,-99.99,,,0.00,weatherlink.com 1.10,2013-02-20 15:40:00,
2013-02-20 10:55:00,14.4,13.0,30.26,North,360,10.0,-999.0,93,-99.99,,,0.00,weatherlink.com 1.10,2013-02-20 15:55:00,
2013-02-20 11:10:00,14.4,13.0,30.26,NNW,346,15.0,-999.0,93,-99.99,,,0.00,weatherlink.com 1.10,2013-02-20 16:10:00,
2013-02-20 11:25:00,14.4,13.0,30.27,North,355,10.0,-999.0,93,-99.99,,,0.00,weatherlink.com 1.10,2013-02-20 16:25:00,
2013-02-20 11:40:00,14.7,13.0,30.27,NNE,15,14.0,-999.0,93,-99.99,,,0.00,weatherlink.com 1.10,2013-02-20 16:40:00,
2013-02-20 11:55:00,14.8,13.0,30.27,NW,321,17.0,-999.0,93,-99.99,,,0.00,weatherlink.com 1.10,2013-02-20 16:55:00,
2013-02-20 12:10:00,14.9,13.0,30.28,North,355,20.0,-999.0,93,-99.99,,,0.00,weatherlink.com 1.10,2013-02-20 17:10:00,
2013-02-20 12:26:00,14.9,13.0,30.29,North,355,16.0,-999.0,93,-99.99,,,0.00,weatherlink.com 1.10,2013-02-20 17:26:00,
2013-02-20 12:41:00,15.0,13.0,30.29,North,355,11.0,-999.0,93,-99.99,,,0.00,weatherlink.com 1.10,2013-02-20 17:41:00,
2013-02-20 12:56:00,15.0,13.0,30.29,North,349,12.0,-999.0,93,-99.99,,,0.00,weatherlink.com 1.10,2013-02-20 17:56:00,
2013-02-20 13:11:00,15.2,14.0,30.29,NNW,348,15.0,-999.0,93,-99.99,,,0.00,weatherlink.com 1.10,2013-02-20 18:11:00,
2013-02-20 13:26:00,15.3,14.0,30.29,North,355,22.0,-999.0,93,-99.99,,,0.00,weatherlink.com 1.10,2013-02-20 18:26:00,
2013-02-20 13:41:00,15.5,14.0,30.29,NNE,30,12.0,-999.0,93,-99.99,,,0.00,weatherlink.com 1.10,2013-02-20 18:41:00,
2013-02-20 13:56:00,15.6,14.0,30.29,NNW,348,13.0,-999.0,94,-99.99,,,0.00,weatherlink.com 1.10,2013-02-20 18:56:00,
2013-02-20 14:11:00,15.7,14.0,30.30,North,355,22.0,-999.0,93,-99.99,,,0.00,weatherlink.com 1.10,2013-02-20 19:11:00,
2013-02-20 14:26:00,15.6,14.0,30.30,NNW,340,23.0,-999.0,93,-99.99,,,0.00,weatherlink.com 1.10,2013-02-20 19:26:00,
2013-02-20 14:41:00,15.7,14.0,30.31,North,355,19.0,-999.0,93,-99.99,,,0.00,weatherlink.com 1.10,2013-02-20 19:41:00,
2013-02-20 14:57:00,15.9,14.0,30.32,NNW,329,8.0,-999.0,93,-99.99,,,0.00,weatherlink.com 1.10,2013-02-20 19:57:00,
2013-02-20 15:11:00,15.8,14.0,30.32,North,350,6.0,-999.0,93,-99.99,,,0.00,weatherlink.com 1.10,2013-02-20 20:11:00,
2013-02-20 15:26:00,16.2,15.0,30.31,NW,324,11.0,-999.0,94,-99.99,,,0.00,weatherlink.com 1.10,2013-02-20 20:26:00,
2013-02-20 15:42:00,16.3,15.0,30.32,NNW,329,11.0,-999.0,94,-99.99,,,0.00,weatherlink.com 1.10,2013-02-20 20:42:00,
2013-02-20 15:57:00,16.3,15.0,30.32,NNW,340,9.0,-999.0,94,-99.99,,,0.00,weatherlink.com 1.10,2013-02-20 20:57:00,
2013-02-20 16:12:00,16.4,15.0,30.32,NNW,333,22.0,-999.0,94,-99.99,,,0.00,weatherlink.com 1.10,2013-02-20 21:12:00,
2013-02-20 16:27:00,16.3,15.0,30.33,NNW,336,14.0,-999.0,94,-99.99,,,0.00,weatherlink.com 1.10,2013-02-20 21:27:00,
2013-02-20 16:42:00,16.2,15.0,30.34,North,360,14.0,-999.0,94,-99.99,,,0.00,weatherlink.com 1.10,2013-02-20 21:42:00,
2013-02-20 16:57:00,16.1,15.0,30.35,NW,322,15.0,-999.0,94,-99.99,,,0.00,weatherlink.com 1.10,2013-02-20 21:57:00,
2013-02-20 17:12:00,16.2,15.0,30.36,NNW,346,9.0,-999.0,94,-99.99,,,0.00,weatherlink.com 1.10,2013-02-20 22:12:00,
2013-02-20 17:27:00,16.2,15.0,30.37,NNW,328,17.0,-999.0,94,-99.99,,,0.00,weatherlink.com 1.10,2013-02-20 22:27:00,
2013-02-20 17:42:00,16.1,15.0,30.38,NNW,337,13.0,-999.0,94,-99.99,,,0.00,weatherlink.com 1.10,2013-02-20 22:42:00,
2013-02-20 17:58:00,16.0,15.0,30.39,NNW,338,19.0,-999.0,94,-99.99,,,0.00,weatherlink.com 1.10,2013-02-20 22:58:00,
2013-02-20 18:13:00,15.9,15.0,30.40,NW,320,11.0,-999.0,94,-99.99,,,0.00,weatherlink.com 1.10,2013-02-20 23:13:00,
2013-02-20 18:28:00,15.8,14.0,30.40,NW,313,14.0,-999.0,94,-99.99,,,0.00,weatherlink.com 1.10,2013-02-20 23:28:00,
2013-02-20 18:43:00,15.7,14.0,30.41,NW,313,11.0,-999.0,94,-99.99,,,0.00,weatherlink.com 1.10,2013-02-20 23:43:00,
2013-02-20 18:58:00,15.7,14.0,30.42,NW,325,9.0,-999.0,94,-99.99,,,0.00,weatherlink.com 1.10,2013-02-20 23:58:00,
2013-02-20 19:13:00,15.8,14.0,30.42,NW,325,10.0,-999.0,94,-99.99,,,0.00,weatherlink.com 1.10,2013-02-21 00:13:00,
2013-02-20 19:28:00,15.8,14.0,30.42,NW,316,9.0,-999.0,94,-99.99,,,0.00,weatherlink.com 1.10,2013-02-21 00:28:00,
2013-02-20 19:43:00,15.8,14.0,30.43,NW,321,9.0,-999.0,94,-99.99,,,0.00,weatherlink.com 1.10,2013-02-21 00:43:00,
2013-02-20 19:58:00,15.9,15.0,30.43,NW,320,9.0,-999.0,94,-99.99,,,0.00,weatherlink.com 1.10,2013-02-21 00:58:00,
2013-02-20 20:28:00,16.0,15.0,30.42,NNW,333,14.0,-999.0,94,-99.99,,,0.00,weatherlink.com 1.10,2013-02-21 01:28:00,
2013-02-20 20:43:00,16.1,15.0,30.42,NNW,344,11.0,-999.0,94,-99.99,,,0.00,weatherlink.com 1.10,2013-02-21 01:43:00,
2013-02-20 20:58:00,16.1,15.0,30.42,NNW,342,11.0,-999.0,94,-99.99,,,0.00,weatherlink.com 1.10,2013-02-21 01:58:00,
2013-02-20 21:14:00,16.1,15.0,30.42,NW,312,8.0,-999.0,94,-99.99,,,0.00,weatherlink.com 1.10,2013-02-21 02:14:00,
2013-02-20 21:29:00,16.1,15.0,30.42,NW,319,11.0,-999.0,94,-99.99,,,0.00,weatherlink.com 1.10,2013-02-21 02:29:00,
2013-02-20 21:44:00,16.2,15.0,30.42,NNW,329,10.0,-999.0,94,-99.99,,,0.00,weatherlink.com 1.10,2013-02-21 02:44:00,
2013-02-20 21:59:00,16.3,15.0,30.42,NW,325,10.0,-999.0,94,-99.99,,,0.00,weatherlink.com 1.10,2013-02-21 02:59:00,
2013-02-20 22:14:00,16.4,15.0,30.43,NW,316,9.0,-999.0,94,-99.99,,,0.00,weatherlink.com 1.10,2013-02-21 03:14:00,
2013-02-20 22:29:00,16.5,15.0,30.43,NW,321,8.0,-999.0,94,-99.99,,,0.00,weatherlink.com 1.10,2013-02-21 03:29:00,
2013-02-20 22:44:00,16.7,15.0,30.43,NNW,329,7.0,-999.0,94,-99.99,,,0.00,weatherlink.com 1.10,2013-02-21 03:44:00,
2013-02-20 22:59:00,16.9,16.0,30.43,NNW,342,10.0,-999.0,94,-99.99,,,0.00,weatherlink.com 1.10,2013-02-21 03:59:00,
2013-02-20 23:15:00,17.0,16.0,30.43,NW,323,12.0,-999.0,94,-99.99,,,0.00,weatherlink.com 1.10,2013-02-21 04:15:00,
2013-02-20 23:30:00,17.1,16.0,30.43,NNW,338,7.0,-999.0,94,-99.99,,,0.00,weatherlink.com 1.10,2013-02-21 04:30:00,
2013-02-20 23:44:00,17.2,16.0,30.42,NNW,336,8.0,-999.0,94,-99.99,,,0.00,weatherlink.com 1.10,2013-02-21 04:44:00,
2013-02-20 23:59:00,17.3,16.0,30.42,NNW,331,9.0,-999.0,94,-99.99,,,0.00,weatherlink.com 1.10,2013-02-21 04:59:00,